Погода в Паркенте

Узбекистан     41°17′42″N   69°40′24″E
темп.,
°C
ветер,
м/с
пор.,
м/с
влажн.,
%
обл.,
%
осадки,
мм/ч
давл.,
гПа
погр.,
м
1 марта, пн
пн123:00+1в113849 0.0 102222
02:00+2в2234100 0.0 102122
05:00+3в3332100 0.0 102122
08:00+5в3338100 0.0 102122
11:00+7всв227066 0.0 102033
14:00+8всв22720 0.0 101962
17:00+7юв22470 0.0 101922
20:00+5в44330 0.0 102125
2 марта, вт
вт223:00+5в44370 0.0 102227
02:00+6вюв443833 0.0 102227
05:00+5вюв333867 0.0 102223
08:00+5вюв2245100 0.0 102322
11:00+8ссз1161100 0.0 102398
14:00+9ссз0150100 0.0 1021263
17:00+6всв2362100 0.1 102153
20:00+5вюв3362100 0.0 102330
3 марта, ср
ср323:00+4в3372100 0.1 102339
02:00+3юв3385100 1.1 1023100
05:00+3вюв3385100 2.0 102474
08:00+4юв1179100 0.1 102438
11:00+6ююз2270100 0.3 1023530
14:00+7зюз2256100 0.0 10221267
17:00+7вюв125798 0.1 10211188
20:00+4ююв127595 0.1 102259
4 марта, чт
чт423:00+4вюв238197 1.9 102275
02:00+4в337280 0.4 102135
05:00+4вюв336143 0.4 102025
08:00+6вюв33590 0.0 102027
11:00+11ю244818 0.0 1018804
14:00+7вюв3475100 1.1 1017368
17:00+4юз4697100 7.0 1018488
20:00+5юв3484100 2.6 102083
5 марта, пт
пт523:00+6ююв3474100 3.6 102154
02:00+5ю2388100 1.3 102264
05:00−1ссз2499100 7.1 1025208
08:00−1з0199100 9.0 102984
11:000зсз11100100 9.8 1029152
14:00+1с229990 0.0 1026160
17:00+2в119685 0.0 102581
20:000вюв335843 0.0 102523